User: anonymous   Login
Location: Ab? ar R?sh Ba?r?
(24.1861°N, 32.8847°E)
Time: 02:34:11
(UTC+00:00)
Language:

Meteor 2-10 Rocket - Orbit

View from above orbital plane
View from above orbital plane
View from above satellite
View from above satellite

Ground track
Ground track

The orbit data is extracted from the following two-line orbital elements,

1 14453U 83109B   22019.52377804  .00000066  00000-0  22142-4 0  9995
2 14453  81.1646 218.7731 0103853 250.6716 108.3210 14.24768607986295
Epoch (UTC): 19 January 2022 12:34:14
Eccentricity: 0.0103853
inclination: 81.1646°
perigee height: 734 km
apogee height: 884 km
right ascension of ascending node: 218.7731°
argument of perigee: 250.6716°
revolutions per day: 14.24768607
mean anomaly at epoch: 108.3210°
orbit number at epoch: 98629

The dashed part of the orbit path shows where the satellite is in the earth's shadow,  

DLR